Home   Weather   Manaus   Past weeks

Flag for Brazil Past Weather in Manaus, Amazonas, Brazil — Yesterday and Last 2 Weeks

Now
86 °F

Scattered clouds.


Feels Like: 95 °F
Forecast: 77 / 88 °F
Wind: 5 mph from Southwest

Location: Manaus Aeroporto

Current Time: Dec 4, 2016 at 12:26:44 pm

Latest Report: Dec 4, 2016 at 12:00 pm


Visibility: N/A

Pressure: 29.86 "Hg

Humidity: 70%

Dew Point: 75 °F

Location of ManausLocation

Past Weather in Manaus — Graph

°F

Manaus Temperature Yesterday

Maximum temperature yesterday: 86 °F (at 2:00 pm)
Minimum temperature yesterday: 73 °F (at 4:00 pm)
Average temperature yesterday: 79 °F

High & Low Weather Summary for the Past Weeks

 TemperatureHumidityPressure
High93 °F (Nov 20, 1:00 pm)94% (Nov 20, 6:00 am)29.92 "Hg (Nov 20, 6:00 am)
Low73 °F (Dec 3, 4:00 pm)46% (Nov 19, 2:00 pm)29.65 "Hg (Nov 19, 4:00 pm)
Average83 °F77%29.79 "Hg
* Reported Nov 19 11:00 am — Dec 4 11:00 am, Manaus, Weather by CustomWeather, © 2016

Note: Actual official high and low records may vary slightly from our data, if they occured in-between our weather recording intervals... More about our weather records

Advertising

Manaus Weather History for the Previous 24 Hours

Scroll right to see more
 ConditionsComfort  
Time TempWeatherWind HumidityBarometerVisibility
11:00 am
Sun, Dec 4
82 °FScattered clouds.5 mph79%29.89 "HgN/A
10:00 am81 °FPartly sunny.6 mph79%29.92 "HgN/A
9:00 am79 °FPartly sunny.2 mph84%29.92 "HgN/A
8:00 am77 °FPartly sunny.3 mph89%29.89 "HgN/A
7:00 am77 °FPartly sunny.2 mph89%29.89 "HgN/A
6:00 am75 °FPartly sunny.3 mph94%29.86 "HgN/A
5:00 am75 °FPassing clouds.No wind94%29.86 "HgN/A
4:00 am75 °FPassing clouds.3 mph94%29.83 "HgN/A
3:00 am75 °FPassing clouds.3 mph94%29.83 "HgN/A
2:00 am75 °FPassing clouds.2 mph94%29.83 "HgN/A
1:00 am75 °FPassing clouds.2 mph94%29.83 "HgN/A
12:00 am75 °FPassing clouds.3 mph94%29.86 "HgN/A
11:00 pm
Sat, Dec 3
77 °FPassing clouds.3 mph89%29.86 "HgN/A
10:00 pm77 °FPartly cloudy.2 mph89%29.86 "HgN/A
9:00 pm75 °FPassing clouds.2 mph89%29.83 "HgN/A
8:00 pm77 °FPassing clouds.2 mph83%29.80 "HgN/A
7:00 pm77 °FClear.5 mph89%29.77 "Hg10 mi
6:00 pm77 °FLight rain. Partly cloudy.6 mph89%29.77 "Hg3 mi
5:00 pm75 °FBroken clouds.3 mph94%29.77 "HgN/A
4:00 pm73 °FLight rain. Broken clouds.2 mph94%29.80 "Hg3 mi
3:00 pm75 °FPartly sunny.10 mph89%29.83 "Hg1 mi
2:00 pm86 °FBroken clouds.6 mph75%29.77 "HgN/A
1:00 pm84 °FScattered clouds.5 mph79%29.83 "HgN/A
12:00 pm82 °FScattered clouds.7 mph79%29.86 "HgN/A
Weather by CustomWeather, © 2016

See weather overviewHow to use our weather pages